Location: Berlin
(42.3812°N, 71.6370°W)
Time: 23:37:40
(UTC+00:00)

CENTAUR R/B - Pass Details

Date: 15 November 2025
Orbit: 633 x 1547 km, 63.4° (Epoch: 09 December)

Event Time Altitude Azimuth Distance (km) Brightness Sun altitude
Exits shadow 10:48:17 - 322° (NW) 3,972 5.2 -9.4°
Reaches altitude 10° 10:50:06 10° 321° (NW) 3,385 4.8 -9.1°
Maximum altitude 10:58:37 74° 239° (WSW) 1,539 3.4 -7.6°
Drops below altitude 10° 11:08:04 10° 156° (SSE) 3,720 6.2 -5.9°
Sets 11:11:08 0° 155° (SSE) 4,689 6.8 -5.4°
